Total_Precipitation_Accumulation
1.22 1.11 1.89 2.00 1.81 1.60 1.50 1.47 1.46 1.47 1.49 1.50 1.32 1.13 0.98 0.89 0.86 0.80 0.69 0.64 0.71 0.71 0.69 0.64 0.63 0.63 0.58 0.59 0.59 0.61 0.67 0.77 0.80 0.82 0.87 0.90 0.84 0.86 1.11 1.38 1.52 1.83 1.48
0.97 1.10 1.96 2.09 1.86 1.54 1.40 1.39 1.45 1.46 1.50 1.42 1.34 1.17 1.02 0.87 0.81 0.74 0.60 0.53 0.57 0.62 0.61 0.63 0.68 0.68 0.68 0.73 0.78 0.82 0.78 0.76 0.87 0.95 1.08 1.11 1.02 0.98 1.00 1.26 1.40 1.68 1.45
0.99 1.12 1.72 2.17 1.95 1.67 1.45 1.42 1.49 1.44 1.53 1.41 1.35 1.16 1.01 0.86 0.81 0.77 0.65 0.59 0.63 0.58 0.55 0.59 0.71 0.73 0.78 0.82 0.86 0.92 0.87 0.81 0.92 1.12 1.46 2.06 1.53 1.11 1.12 1.22 1.29 1.23 1.32
0.95 1.03 1.50 2.20 1.92 1.75 1.64 1.63 1.54 1.53 1.59 1.41 1.28 1.11 0.99 0.91 0.88 0.87 0.93 0.95 0.82 0.64 0.59 0.59 0.71 0.73 0.73 0.80 0.89 0.87 0.83 0.85 1.02 1.12 1.54 2.12 1.94 1.30 1.27 1.35 1.40 1.21 1.22
0.98 1.11 1.71 2.18 1.88 1.71 1.68 1.68 1.57 1.63 1.60 1.41 1.21 0.99 0.93 0.95 1.05 1.13 1.14 1.03 0.82 0.67 0.63 0.64 0.71 0.75 0.71 0.71 0.82 0.87 0.87 0.94 1.06 1.08 1.52 2.03 2.25 1.70 1.34 1.35 1.40 1.25 1.25
1.19 1.20 1.69 2.10 1.89 1.69 1.66 1.62 1.59 1.57 1.58 1.47 1.20 1.00 0.95 0.93 0.95 1.02 1.07 1.00 0.83 0.70 0.63 0.69 0.75 0.77 0.74 0.75 0.79 0.86 0.88 0.95 0.91 1.14 1.58 1.89 2.17 1.71 1.26 1.27 1.43 1.36 1.37
1.16 1.21 1.54 1.95 1.80 1.58 1.54 1.61 1.66 1.62 1.59 1.49 1.22 1.09 1.06 1.01 0.95 0.99 0.98 0.92 0.77 0.66 0.64 0.70 0.76 0.81 0.76 0.78 0.76 0.77 0.84 0.77 0.70 1.07 1.44 1.77 1.75 1.49 1.28 1.34 1.51 1.48 1.56
1.17 1.13 1.32 1.69 1.76 1.58 1.50 1.49 1.56 1.57 1.57 1.46 1.17 1.07 1.02 1.02 0.98 0.94 0.94 0.89 0.77 0.75 0.75 0.73 0.73 0.79 0.82 0.79 0.77 0.78 0.78 0.65 0.55 0.81 1.15 1.54 1.64 1.55 1.41 1.41 1.53 1.59 1.71
1.29 1.22 1.24 1.42 1.58 1.78 1.76 1.61 1.52 1.49 1.48 1.45 1.24 1.11 1.04 0.94 0.83 0.81 0.81 0.78 0.78 0.85 0.81 0.74 0.71 0.72 0.76 0.79 0.80 0.83 0.78 0.66 0.59 0.77 0.81 1.26 1.53 1.59 1.47 1.44 1.51 1.58 1.75
1.32 1.24 1.19 1.28 1.33 1.47 1.61 1.68 1.65 1.59 1.56 1.53 1.32 1.17 1.07 0.90 0.78 0.77 0.69 0.71 0.76 0.89 0.96 0.87 0.81 0.79 0.79 0.85 0.86 0.84 0.83 0.65 0.58 0.63 0.82 1.00 1.46 1.55 1.43 1.44 1.47 1.50 1.64
1.20 1.08 1.03 1.07 1.19 1.33 1.55 1.71 1.80 1.71 1.70 1.59 1.38 1.25 1.09 0.82 0.70 0.72 0.67 0.83 0.84 0.91 0.98 1.00 1.02 0.99 0.91 0.86 0.91 0.84 0.66 0.59 0.70 0.73 0.83 0.97 1.47 1.62 1.54 1.48 1.50 1.46 1.44
1.17 1.04 0.88 0.88 0.99 1.10 1.22 1.63 1.67 1.46 1.40 1.30 1.43 1.30 1.09 1.01 0.88 0.60 0.66 0.89 1.05 1.08 1.04 1.01 1.11 0.97 0.76 0.63 0.71 0.65 0.48 0.54 0.66 0.72 0.74 1.12 1.56 1.59 1.45 1.41 1.47 1.39 1.32
1.03 0.97 0.84 0.78 0.77 0.77 0.88 1.14 1.32 1.36 1.41 1.30 1.24 1.16 1.10 0.97 0.79 0.66 0.70 0.72 0.78 0.84 0.79 0.81 0.80 0.64 0.57 0.62 0.62 0.51 0.45 0.54 0.64 0.73 0.82 1.29 1.64 1.65 1.40 1.29 1.36 1.35 1.34
0.86 0.87 0.79 0.66 0.59 0.54 0.58 0.67 0.81 0.99 1.13 1.13 0.95 0.85 0.91 0.92 0.81 0.69 0.69 0.68 0.69 0.73 0.83 0.86 0.85 0.75 0.73 0.71 0.66 0.66 0.65 0.68 0.71 0.79 0.98 1.26 1.71 1.68 1.50 1.39 1.42 1.46 1.45
0.80 0.82 0.74 0.60 0.57 0.52 0.52 0.54 0.53 0.75 0.95 1.04 1.01 0.85 0.81 0.82 0.81 0.75 0.64 0.66 0.61 0.64 0.72 0.77 0.80 0.83 0.92 0.88 0.85 0.88 0.90 0.86 0.78 0.77 0.94 1.21 1.68 2.03 1.96 1.78 1.59 1.60 1.61
0.67 0.76 0.73 0.68 0.68 0.61 0.52 0.51 0.52 0.60 0.75 0.80 0.93 0.92 0.85 0.77 0.74 0.77 0.73 0.74 0.74 0.72 0.72 0.73 0.73 0.86 0.93 0.96 0.94 0.92 0.91 0.79 0.78 0.87 1.03 1.11 1.17 1.52 2.01 2.09 2.03 1.92 1.82
0.61 0.62 0.60 0.62 0.69 0.69 0.65 0.60 0.59 0.68 0.72 0.77 0.82 0.81 0.86 0.77 0.70 0.75 0.78 0.80 0.82 0.81 0.81 0.84 0.85 0.94 0.94 1.02 1.05 0.93 0.87 0.81 0.79 0.87 0.94 1.02 0.86 0.90 1.38 1.98 2.23 2.09 2.03
0.54 0.53 0.56 0.53 0.62 0.72 0.77 0.77 0.80 0.81 0.84 0.91 0.87 0.82 0.80 0.75 0.73 0.81 0.84 0.88 0.94 0.85 0.82 0.91 0.98 1.06 1.06 1.13 1.17 1.00 0.83 0.90 0.86 0.86 0.99 1.01 0.97 0.90 1.08 1.32 1.59 1.75 2.04
0.51 0.53 0.58 0.58 0.64 0.72 0.77 0.87 0.95 1.00 1.06 1.19 1.15 1.09 1.02 0.90 0.91 0.98 1.03 1.06 1.08 1.09 1.02 0.93 0.97 1.08 1.20 1.24 1.13 1.04 0.93 0.92 0.94 0.93 1.10 1.11 1.05 1.05 1.15 1.08 1.10 1.24 1.53
0.57 0.54 0.59 0.67 0.74 0.84 0.99 1.18 1.37 1.46 1.60 1.79 1.73 1.58 1.38 1.22 1.19 1.29 1.27 1.22 1.29 1.39 1.43 1.23 1.28 1.24 1.21 1.31 1.17 1.09 1.07 1.02 1.02 1.07 1.12 1.18 1.26 1.17 1.22 1.14 1.04 0.87 1.07
0.53 0.53 0.55 0.60 0.70 0.81 1.01 1.30 1.70 1.91 2.04 2.03 2.04 1.94 1.72 1.51 1.52 1.68 1.66 1.64 1.65 1.65 1.62 1.57 1.71 1.65 1.40 1.32 1.51 1.49 1.35 1.19 1.14 1.11 1.12 1.27 1.39 1.39 1.44 1.37 1.24 1.06 0.94
0.37 0.40 0.52 0.55 0.63 0.77 1.03 1.31 1.63 1.96 2.03 2.03 2.04 1.99 1.87 1.74 1.74 1.78 1.99 2.10 2.07 2.19 2.17 1.99 2.14 2.15 1.79 1.55 1.81 2.11 1.84 1.63 1.23 1.11 1.17 1.21 1.31 1.46 1.55 1.43 1.28 1.17 1.12
0.26 0.26 0.38 0.47 0.60 0.88 1.21 1.49 1.67 1.94 2.02 2.05 2.01 2.02 2.04 1.99 1.89 1.91 2.03 2.21 2.22 2.30 2.41 2.48 2.42 2.53 2.35 1.95 1.81 2.10 2.02 1.88 1.68 1.29 1.20 1.28 1.41 1.50 1.57 1.58 1.43 1.21 1.18
0.22 0.21 0.28 0.37 0.59 0.94 1.28 1.53 1.77 2.11 2.16 2.09 2.10 2.09 2.10 2.12 2.08 2.16 2.18 2.30 2.32 2.34 2.45 2.55 2.52 2.66 2.74 2.35 2.05 1.84 1.67 1.68 1.81 1.59 1.35 1.30 1.46 1.50 1.53 1.57 1.62 1.46 1.29
0.26 0.27 0.33 0.46 0.68 0.96 1.18 1.45 1.81 2.04 2.12 2.23 2.14 2.11 2.11 2.17 2.19 2.23 2.30 2.46 2.46 2.44 2.42 2.63 2.68 2.78 2.71 2.62 2.47 2.31 2.14 1.90 1.55 1.64 1.68 1.53 1.44 1.35 1.42 1.56 1.72 1.67 1.51
0.33 0.38 0.48 0.63 0.77 1.00 1.20 1.42 1.60 1.83 1.95 2.07 2.14 2.07 2.07 2.13 2.23 2.12 2.04 2.18 2.25 2.29 2.28 2.47 2.65 2.79 2.77 2.79 2.71 2.43 2.37 2.24 1.87 1.81 1.69 1.60 1.61 1.42 1.36 1.46 1.52 1.53 1.55